GLOBALSTAR M064 [-]

Last updated on Fri Dec 29 2023 00:02:56 GMT+0000 (Coordinated Universal Time)

1 26084U 00008D 23361.91113790 -.00000073 00000+0 15269-3 0 9990 2 26084 51.9996 191.7012 0002792 97.5624 262.5525 11.88514055103217
UTC large
Height (km)
Speed (km/s)
/
Latitude / Longitude
Inclination (degrees)
Orbital Period (minutes)
Azimuth
Elevation
Range (km)
Doppler Factor

Next 0 passes for location: London (51.5072 / 0.1276)

Sorry there are no passes over London.